Weather Service Report


177 
ASUS46 KLOX 071413
RWRCA 

SOUTHERN CALIFORNIA WEATHER ROUNDUP
NATIONAL WEATHER SERVICE OXNARD CALIFORNIA
600 AM PST WED DEC 07 2016

NOTE: "FAIR" INDICATES FEW OR NO CLOUDS BELOW 12,000 FEET WITH NO 
SIGNIFICANT WEATHER AND/OR OBSTRUCTIONS TO VISIBILITY.

  -  STATIONS PRECEEDED BY AN ASTERISK (*) ARE NOT NWS OR FAA 
     STATIONS AND ARE NOT SUBJECT TO NWS AND FAA QUALITY CONTROL.

CAZ041-042-087-071500-
LA AND ORANGE COUNTY COASTAL AREAS

  
CITY           SKY/WX    TMP DP  RH WIND       PRES   REMARKS
L.A. DOWNTOWN  MOCLDY    51  40  65 NE3       30.04R                  
L.A. AIRPORT   MOCLDY    52  39  61 NE6       30.04S                  
LONG BEACH     MOCLDY    51  49  92 CALM      30.05R FOG              

CITY           SKY/WX    TMP DP  RH WIND       PRES   REMARKS
AVALON           N/A     50 N/A N/A S3          N/A                   
FULLERTON      MOCLDY    52  49  89 E5        30.04R                  
*GETTY CENTER    N/A    N/A N/A N/A VRB14G20    N/A                   
HAWTHORNE      MOCLDY    53  42  66 CALM      30.04S                  
*LEO CARRILLO    N/A     50  44  79 N5          N/A                   
*LOS ALAMITOS  FAIR      50  49  99 CALM      30.04R                  
*REDONDO BEACH   N/A     48  45  90 CALM      30.04R                  
SANTA ANA      MOCLDY    52  46  80 CALM      30.05R                  
STA MONICA APT MOCLDY    52  33  48 N5        30.04S                  
*UCLA            N/A     52  28  40 N7        30.02R                  

$$

CAZ547-548-048-071500-
LA COUNTY VALLEYS AND INLAND EMPIRE

  
CITY           SKY/WX    TMP DP  RH WIND       PRES   REMARKS
BURBANK        MOCLDY    48  39  71 CALM      30.04R                  
VAN NUYS       CLOUDY    48  40  73 N3        30.04R                  

CITY           SKY/WX    TMP DP  RH WIND       PRES   REMARKS
CORONA AIRPORT PTSUNNY   46  44  93 CALM      30.06R                  
*CHATSWORTH      N/A     45  41  86 CALM      30.08R                  
CHINO          CLOUDY    51  46  83 CALM      30.06R                  
MARCH AFB      MOCLDY    45  45 100 E3        30.05R                  
*NORTHRIDGE      N/A     45  36  70 CALM        N/A                   
ONTARIO        MOCLDY    52  48  86 CALM      30.05R                  
*PASADENA        N/A     52  46  82 CALM        N/A                   
RIVERSIDE      MOCLDY    48  46  93 CALM      30.05R                  
SAN BERNARDINO CLOUDY    50  40  68 CALM      30.05R                  
*SAN RAFAEL HI   N/A     47  42  82 SW6         N/A                   
*SAUGUS          N/A     42  30  63 NE3         N/A                   
*WHITEMAN AP   NOT AVBL                                               
*WHITTIER HILL   N/A     51  49  93 NE6         N/A                   
*WOODLAND HILL   N/A     41  39  93 SW1         N/A                   

$$

CAZ054-055-071500-
LA AND SAN BERNARDINO COUNTY MOUNTAINS

  
CITY           SKY/WX    TMP DP  RH WIND       PRES   REMARKS
*ACTON           N/A     36  34  91 NE5         N/A  WCI  32          
*BIG BEAR AIRP PTSUNNY   27   9  46 CALM      30.05R                  
*BIG PINES       N/A     31 -10  16 CALM        N/A                   
*CHILAO          N/A     40  -8  12 N7          N/A                   
SANDBERG       CLOUDY    34  29  82 N18G29    30.03S WCI  23          
*WARM SPRINGS    N/A     36  22  57 NW8G24      N/A  WCI  30          

$$

CAZ028-029-059-060-099-071500-
ANTELOPE VALLEY AND SURROUNDING AREAS

  
CITY           SKY/WX    TMP DP  RH WIND       PRES   REMARKS
LANCASTER      MOCLDY    38  28  67 NW6       30.08R WCI  33          
PALMDALE       MOCLDY    38  29  70 VRB3      30.07R                  
*POPPY PARK      N/A     42  28  58 W12G29      N/A                   

CITY           SKY/WX    TMP DP  RH WIND       PRES   REMARKS
29 PALMS       MOCLDY    47  20  34 NW15      30.11R                  
BARSTOW/DAGGET MOCLDY    36  28  73 W8        30.08R WCI  30          
BISHOP         CLEAR     30  14  51 N10       30.09R WCI  21          
CHINA LAKE     MOCLDY    27  16  63 SW6       30.08R WCI  20          
EDWARDS AFB    MOCLDY    36  25  64 NW6       30.05R WCI  31          
MOJAVE         CLEAR     36  23  60 CALM      30.05R                  
NEEDLES        PTCLDY    52  20  28 N12       30.00R                  
VICTORVILLE      N/A     34  27  75 CALM      30.08R                  

$$

CAZ039-040-071500-
VENTURA AND SANTA BARBARA COUNTY COAST

  
CITY           SKY/WX    TMP DP  RH WIND       PRES   REMARKS
CAMARILLO      MOCLDY    43  39  86 CALM      30.04R                  
NWS OXNARD       N/A     46  37  71 CALM      30.03R                  
OXNARD AIRPORT MOCLDY    50  36  58 NE8       30.04R                  
*POINT MUGU    MOCLDY    46  41  82 N6        30.05R                  
SBA APT/GOLETA MOCLDY    43  36  76 CALM      30.03R                  
*SANTA BARBARA   N/A     47  40  78 CALM      30.12R                  
*VENTURA         N/A     50  35  56 N6        30.04R                  

$$

CAZ044-045-071500-
VENTURA COUNTY VALLEYS

  
CITY           SKY/WX    TMP DP  RH WIND       PRES   REMARKS
*SIMI VALLEY     N/A     49  35  58 NE5       30.03R                  
*WESTLAKE VILL   N/A     38  37  92 CALM      30.05R                  
*OJAI            N/A     34  32  92 CALM      30.04R                  
*FILLMORE        N/A     40  36  87 CALM      29.95R                  

$$

CAZ053-071500-
VENTURA COUNTY MOUNTAINS

  
CITY           SKY/WX    TMP DP  RH WIND       PRES   REMARKS
*LOCKWOOD VLY    N/A     23  14  68 NW2         N/A                   
*FRAZIER MTN     N/A     29 -42   3 NW14      29.75R WCI  19          
*ROSE VALLEY     N/A     23  23 100 MISG        N/A                   

$$

CAZ034-035-036-071500-
CENTRAL COAST AND SANTA YNEZ VALLEY

  
CITY           SKY/WX    TMP DP  RH WIND       PRES   REMARKS
SAN LUIS OBISP MOCLDY    42  37  82 CALM      30.09S                  
SANTA MARIA    CLOUDY    41  38  89 W3        30.09R                  

CITY           SKY/WX    TMP DP  RH WIND       PRES   REMARKS
*CAL POLY SLO    N/A     46  37  71 NE15        N/A                   
*LOMPOC        CLOUDY    38  37  97 E3        30.09R                  
*PISMO BEACH     N/A     44  38  80 E1        30.10S                  
*SANTA YNEZ      N/A    N/A N/A N/A MISG        N/A                   

$$

CAZ037-038-051-071500-
SAN LUIS OBISPO COUNTY INTERIOR AND CUYAMA VALLEY

  
CITY           SKY/WX    TMP DP  RH WIND       PRES   REMARKS
*CUYAMA          N/A     34  30  87 CALM      30.12R                  
PASO ROBLES    PTCLDY    31  31 100 CALM      30.13R FOG              

$$

CAZ032-033-061-071500-
SOUTHERN DESERTS

  
CITY           SKY/WX    TMP DP  RH WIND       PRES   REMARKS
BLYTHE         MOCLDY    46  34  62 W6        29.99R                  
IMPERIAL       PTCLDY    49  39  68 MISG      29.98R                  
PALM SPRINGS   MOCLDY    55  39  54 CALM      30.00R                  
THERMAL        MOCLDY    50  40  68 W6        29.97R                  

$$

ELSEWHERE ACROSS THE WESTERN UNITED STATES AND MEXICO

  
CITY           SKY/WX    TMP DP  RH WIND       PRES   REMARKS
DEATH VALLEY,    N/A     50  14  23 CALM        N/A                   
DENVER, CO     SNOW      12   8  84 NE16      30.05R VSB 1/2 WCI  -5  
GRAND CANYON,  CLOUDY    31  30  96 W3        30.01R                  
HONOLULU, HI   MOCLDY    70  66  88 CALM      29.94F                  
KAHULUI, MAUI  CLOUDY    70  66  88 CALM      29.94F                  
LAKE TAHOE, CA PTCLDY     9   4  80 CALM      30.06R                  
LAS VEGAS, NV  MOCLDY    44   9  23 N13       30.08R                  
MAMMOTH LAKES, FAIR      19  11  73 W9        30.03R WCI   7          
MEXICO CITY, M MOSUNNY   52  41  66 E5        30.36R                  
PHOENIX, AZ    MOCLDY    48  41  76 E6        29.97R                  
PORTLAND, OR   CLOUDY    31  29  92 N3        30.38S FOG              
RENO, NV       MOCLDY    23  15  71 N6        30.16R WCI  16          
SALT LAKE CITY CLOUDY    23  15  71 N6        30.17R WCI  16          
SAN DIEGO, CA  MOCLDY    55  48  77 SE6       30.07R                  
SAN FRANCISCO, PTCLDY    45  40  82 S5        30.15S                  
SAN JOSE, CA   PTCLDY    39  35  86 S3        30.15R                  
SEATTLE, WA    CLEAR     29  22  75 N12       30.42R WCI  19          
TIJUANA, MEX   PTCLDY    52  45  76 CALM      30.08                   

$$
  
STATION/POSITION TIME  TEMP    WIND        PRES    VSBY  WAVE
                       AIR SEA DIR/SP/G                  HT/PER
                 (UTC) (F)     (DEG/KT/KT) (MB)    (MI)  (FT/S)
POINT ARGUELLO B NOT AVBL
WEST SANTA BARBA 1350   54 57  330/ 17/ 21 1017.8R         8/12
POINT CONCEPTION NOT AVBL
EAST SANTA BARBA 1400          290/ 14/ 16 1017.6
SANTA MONICA BAY 1400   56 60  330/  6/  8 1017.0

Return to Home page


Western Regional Climate Center, wrcc@dri.edu